Regional Weather Roundup
Issued by NWS

Home | Current Version | Previous Version | Text Only | Print | Product List | Glossary Off
Versions: 1 2 3 4 5 6 7 8 9 10 11 12 13 14 15 16 17 18 19 20 21 22 23 24 25 26 27 28 29 30 31 32 33 34 35 36 37 38 39 40 41 42 43 44 45 46 47 48 49 50

000
ASUS43 KFSD 301102
RWRSD

WEATHER ROUNDUP FOR SOUTH DAKOTA
NATIONAL WEATHER SERVICE SIOUX FALLS SD
600 AM CDT THU MAR 30 2017

NOTE: "FAIR" INDICATES FEW OR NO CLOUDS BELOW 12,000 FEET WITH NO
SIGNIFICANT WEATHER AND/OR OBSTRUCTIONS TO VISIBILITY.


SDZ001>005-009-010-012>017-301200-
NORTHWEST AND NORTH CENTRAL SOUTH DAKOTA

CITY           SKY/WX    TMP DP  RH WIND       PRES   REMARKS
BUFFALO          N/A     43  39  86 S12       29.70F
FAITH            N/A     33  33 100 MISG      29.81F
MOBRIDGE       CLEAR     32  28  85 SE7       29.86F WCI  26
$$

SDZ012>016-024>037-041>051-057-063-072>074-301200-
SOUTHWEST AND SOUTH CENTRAL SOUTH DAKOTA

CITY           SKY/WX    TMP DP  RH WIND       PRES   REMARKS
RAPID CTY ARPT CLOUDY    34  33  96 SE6       29.79F FOG     WCI  29
PIERRE         CLOUDY    30  30 100 CALM      29.87F
CUSTER         CLOUDY    32  30  92 NW6       29.80F WCI  26
ELLSWORTH AFB  CLOUDY    37  37 100 CALM      29.77F
PHILIP         CLEAR     27  27 100 E6        29.85F WCI  20
PINE RIDGE     FOG       30  30 100 NE5       29.81F VSB 1/4 WCI  25
SPEARFISH      FAIR      39  32  75 CALM      29.78F
WINNER         CLOUDY    39  36  89 NE5       29.87F
$$

SDZ004>011-016>023-039-040-301200-
NORTHEAST SOUTH DAKOTA

CITY           SKY/WX    TMP DP  RH WIND       PRES   REMARKS
ABERDEEN       MOCLDY    33  30  88 E6        29.93F WCI  28
WATERTOWN      CLOUDY    37  35  92 E8        29.92F
BROOKINGS      CLOUDY    37  35  92 NE10      29.89F
SISSETON         N/A     38  37  97 SE3       29.95F
$$

SDZ017-020-022-023-036>040-048>070-301200-
SOUTHEAST SOUTH DAKOTA

CITY           SKY/WX    TMP DP  RH WIND       PRES   REMARKS
SIOUX FALLS    CLOUDY    39  38  96 NE12      29.86F
HURON          CLOUDY    38  36  92 E7        29.90F
CHAMBERLAIN    CLOUDY    40  38  95 NE6       29.88F
MITCHELL       CLOUDY    40  37  89 NE9       29.90F
YANKTON        CLOUDY    39  36  87 N10       29.85F
$$

ABBREVIATIONS USED IN REMARKS
   TC - TEMPERATURE IN CELSIUS
  WCI - WIND CHILL INDEX
   HX - HEAT INDEX
  VSB - VISIBILITY





USA.gov is the U.S. government's official web portal to all federal, state and local government web resources and services.